When you browse on this site, cookies collect data to enhance your experience and personalize the content and advertising you see.
Visit our Privacy Policy to learn more. By continuing to use the site, you agree to this use of cookies and data.
  • în România
  • Lista ţărilor
  • Pe 7 zile
  • Temperatura apei
  • Hartă satelitară
  • Meteo pe hartă
  • Widget-uri
  • user-avatar
    Intrare

    Meteo pe oră la Barra

    Astăzi, 13 Decembrie, Joi

    Timp Temperatura Precipitaţii Vânt Presiune Umiditate
    00:00 +25°C° 0 mm 4 m/s 760 mmHg 31%
    01:00 +25°C° 0 mm 4 m/s 759 mmHg 29%
    02:00 +25°C° 0 mm 4 m/s 759 mmHg 26%
    03:00 +23°C° 0 mm 4 m/s 759 mmHg 23%
    04:00 +23°C° 0 mm 4 m/s 759 mmHg 21%
    05:00 +23°C° 0 mm 4 m/s 759 mmHg 18%
    06:00 +25°C° 0 mm 5 m/s 759 mmHg 17%
    07:00 +26°C° 0 mm 5 m/s 760 mmHg 16%
    08:00 +27°C° 0 mm 6 m/s 760 mmHg 15%
    09:00 +29°C° 0 mm 5 m/s 760 mmHg 14%
    10:00 +33°C° 0 mm 5 m/s 760 mmHg 13%
    11:00 +36°C° 0 mm 5 m/s 760 mmHg 12%
    12:00 +37°C° 0 mm 4 m/s 759 mmHg 12%
    13:00 +38°C° 0 mm 3 m/s 759 mmHg 12%
    14:00 +39°C° 0 mm 3 m/s 758 mmHg 12%
    15:00 +38°C° 0 mm 2 m/s 758 mmHg 14%
    16:00 +37°C° 0 mm 2 m/s 758 mmHg 16%
    17:00 +36°C° 0 mm 2 m/s 758 mmHg 18%
    18:00 +34°C° 0 mm 3 m/s 758 mmHg 22%
    19:00 +33°C° 0 mm 3 m/s 759 mmHg 27%
    20:00 +30°C° 0 mm 3 m/s 759 mmHg 31%
    21:00 +29°C° 0 mm 3 m/s 759 mmHg 31%
    22:00 +29°C° 0 mm 3 m/s 760 mmHg 31%
    23:00 +28°C° 0 mm 3 m/s 760 mmHg 32%

    Mâine, 14 Decembrie, Vineri

    Timp Temperatura Precipitaţii Vânt Presiune Umiditate
    00:00 +27°C° 0 mm 3 m/s 760 mmHg 30%
    01:00 +27°C° 0 mm 3 m/s 759 mmHg 27%
    02:00 +26°C° 0 mm 4 m/s 759 mmHg 25%
    03:00 +26°C° 0 mm 4 m/s 759 mmHg 24%
    04:00 +26°C° 0 mm 4 m/s 759 mmHg 23%
    05:00 +25°C° 0 mm 5 m/s 759 mmHg 22%
    06:00 +27°C° 0 mm 5 m/s 760 mmHg 22%
    07:00 +28°C° 0 mm 6 m/s 760 mmHg 21%
    08:00 +29°C° 0 mm 6 m/s 761 mmHg 20%
    09:00 +32°C° 0 mm 6 m/s 761 mmHg 18%
    10:00 +35°C° 0 mm 6 m/s 761 mmHg 16%
    11:00 +38°C° 0 mm 6 m/s 761 mmHg 14%
    12:00 +39°C° 0 mm 5 m/s 760 mmHg 13%
    13:00 +40°C° 0 mm 5 m/s 759 mmHg 13%
    14:00 +41°C° 0 mm 4 m/s 759 mmHg 12%
    15:00 +41°C° 0 mm 4 m/s 759 mmHg 13%
    16:00 +39°C° 0 mm 3 m/s 759 mmHg 14%
    17:00 +38°C° 0 mm 3 m/s 759 mmHg 15%
    18:00 +36°C° 0 mm 3 m/s 759 mmHg 18%
    19:00 +34°C° 0 mm 3 m/s 760 mmHg 20%
    20:00 +33°C° 0 mm 3 m/s 760 mmHg 22%
    21:00 +31°C° 0 mm 3 m/s 760 mmHg 25%
    22:00 +30°C° 0 mm 3 m/s 760 mmHg 28%
    23:00 +29°C° 0 mm 2 m/s 761 mmHg 31%

    Poimâine, 15 Decembrie, Sâmbătă

    Timp Temperatura Precipitaţii Vânt Presiune Umiditate
    00:00 +29°C° 0 mm 3 m/s 760 mmHg 29%
    01:00 +28°C° 0 mm 3 m/s 760 mmHg 26%
    02:00 +28°C° 0 mm 4 m/s 760 mmHg 24%
    03:00 +28°C° 0 mm 4 m/s 760 mmHg 22%
    04:00 +28°C° 0 mm 4 m/s 760 mmHg 19%
    05:00 +27°C° 0 mm 4 m/s 760 mmHg 17%
    06:00 +28°C° 0 mm 5 m/s 761 mmHg 16%
    07:00 +29°C° 0 mm 6 m/s 762 mmHg 16%
    08:00 +29°C° 0 mm 6 m/s 762 mmHg 15%
    09:00 +32°C° 0 mm 7 m/s 762 mmHg 14%
    10:00 +35°C° 0 mm 7 m/s 762 mmHg 12%
    11:00 +38°C° 0 mm 7 m/s 762 mmHg 11%
    12:00 +39°C° 0 mm 6 m/s 761 mmHg 11%
    13:00 +40°C° 0 mm 6 m/s 760 mmHg 10%
    14:00 +40°C° 0 mm 5 m/s 760 mmHg 10%
    15:00 +40°C° 0 mm 4 m/s 760 mmHg 11%
    16:00 +38°C° 0 mm 4 m/s 759 mmHg 12%
    17:00 +37°C° 0 mm 3 m/s 759 mmHg 13%
    18:00 +36°C° 0 mm 3 m/s 760 mmHg 14%
    19:00 +34°C° 0 mm 3 m/s 760 mmHg 14%
    20:00 +33°C° 0 mm 4 m/s 761 mmHg 14%
    21:00 +32°C° 0 mm 4 m/s 761 mmHg 15%
    22:00 +30°C° 0 mm 5 m/s 761 mmHg 15%
    23:00 +30°C° 0 mm 6 m/s 761 mmHg 16%

    16 Decembrie, Duminică

    Timp Temperatura Precipitaţii Vânt Presiune Umiditate
    00:00 +29°C° 0 mm 6 m/s 761 mmHg 16%
    01:00 +28°C° 0 mm 6 m/s 761 mmHg 16%
    02:00 +28°C° 0 mm 7 m/s 760 mmHg 17%
    03:00 +27°C° 0 mm 6 m/s 760 mmHg 17%
    04:00 +27°C° 0 mm 6 m/s 760 mmHg 17%
    05:00 +26°C° 0 mm 6 m/s 760 mmHg 18%
    06:00 +26°C° 0 mm 6 m/s 761 mmHg 18%
    07:00 +27°C° 0 mm 6 m/s 761 mmHg 17%
    08:00 +27°C° 0 mm 6 m/s 762 mmHg 17%
    09:00 +30°C° 0 mm 6 m/s 762 mmHg 16%
    10:00 +34°C° 0 mm 5 m/s 762 mmHg 14%
    11:00 +36°C° 0 mm 5 m/s 761 mmHg 13%
    12:00 +37°C° 0 mm 5 m/s 761 mmHg 13%
    13:00 +38°C° 0 mm 4 m/s 760 mmHg 13%
    14:00 +38°C° 0 mm 4 m/s 759 mmHg 13%
    15:00 +37°C° 0 mm 4 m/s 759 mmHg 15%
    16:00 +36°C° 0 mm 4 m/s 759 mmHg 17%
    17:00 +35°C° 0 mm 5 m/s 759 mmHg 19%
    18:00 +33°C° 0 mm 5 m/s 759 mmHg 25%
    19:00 +30°C° 0 mm 5 m/s 760 mmHg 31%
    20:00 +29°C° 0 mm 5 m/s 761 mmHg 36%
    21:00 +28°C° 0 mm 5 m/s 761 mmHg 36%
    22:00 +27°C° 0 mm 6 m/s 761 mmHg 36%
    23:00 +26°C° 0 mm 6 m/s 761 mmHg 36%

    17 Decembrie, Luni

    Timp Temperatura Precipitaţii Vânt Presiune Umiditate
    00:00 +26°C° 0 mm 6 m/s 760 mmHg 39%
    01:00 +25°C° 0 mm 5 m/s 760 mmHg 41%
    02:00 +23°C° 0 mm 5 m/s 759 mmHg 44%
    03:00 +23°C° 0 mm 5 m/s 759 mmHg 41%
    04:00 +22°C° 0 mm 5 m/s 759 mmHg 38%
    05:00 +22°C° 0 mm 4 m/s 759 mmHg 35%
    06:00 +23°C° 0 mm 4 m/s 760 mmHg 29%
    07:00 +25°C° 0 mm 4 m/s 760 mmHg 23%
    08:00 +26°C° 0 mm 4 m/s 761 mmHg 17%
    09:00 +29°C° 0 mm 4 m/s 761 mmHg 15%
    10:00 +33°C° 0 mm 4 m/s 760 mmHg 13%
    11:00 +36°C° 0 mm 4 m/s 760 mmHg 10%
    12:00 +37°C° 0 mm 4 m/s 759 mmHg 10%
    13:00 +38°C° 0 mm 4 m/s 758 mmHg 10%
    14:00 +39°C° 0 mm 3 m/s 757 mmHg 10%
    15:00 +39°C° 0 mm 3 m/s 757 mmHg 12%
    16:00 +38°C° 0 mm 3 m/s 757 mmHg 13%
    17:00 +37°C° 0 mm 3 m/s 757 mmHg 15%
    18:00 +35°C° 0 mm 4 m/s 758 mmHg 20%
    19:00 +33°C° 0 mm 4 m/s 759 mmHg 26%
    20:00 +29°C° 0 mm 5 m/s 759 mmHg 31%
    21:00 +29°C° 0 mm 5 m/s 759 mmHg 32%
    22:00 +28°C° 0 mm 5 m/s 759 mmHg 34%
    23:00 +27°C° 0 mm 5 m/s 760 mmHg 35%

    18 Decembrie, Marţi

    Timp Temperatura Precipitaţii Vânt Presiune Umiditate
    00:00 +27°C° 0 mm 4 m/s 759 mmHg 31%
    01:00 +26°C° 0 mm 4 m/s 759 mmHg 27%
    02:00 +26°C° 0 mm 3 m/s 759 mmHg 23%
    03:00 +26°C° 0 mm 4 m/s 759 mmHg 21%
    04:00 +25°C° 0 mm 4 m/s 759 mmHg 20%
    05:00 +25°C° 0 mm 4 m/s 759 mmHg 18%
    06:00 +26°C° 0 mm 5 m/s 759 mmHg 17%
    07:00 +27°C° 0 mm 6 m/s 760 mmHg 16%
    08:00 +28°C° 0 mm 6 m/s 760 mmHg 15%
    09:00 +32°C° 0 mm 6 m/s 760 mmHg 14%
    10:00 +34°C° 0 mm 6 m/s 760 mmHg 12%
    11:00 +38°C° 0 mm 6 m/s 759 mmHg 11%
    12:00 +39°C° 0 mm 6 m/s 759 mmHg 10%
    13:00 +40°C° 0 mm 5 m/s 758 mmHg 10%
    14:00 +41°C° 0 mm 4 m/s 757 mmHg 9%
    15:00 +40°C° 0 mm 4 m/s 757 mmHg 10%
    16:00 +38°C° 0 mm 3 m/s 757 mmHg 11%
    17:00 +38°C° 0 mm 3 m/s 757 mmHg 12%
    18:00 +36°C° 0 mm 3 m/s 758 mmHg 15%
    19:00 +34°C° 0 mm 3 m/s 758 mmHg 17%
    20:00 +31°C° 0 mm 3 m/s 759 mmHg 20%
    21:00 +30°C° 0 mm 3 m/s 759 mmHg 22%
    22:00 +29°C° 0 mm 3 m/s 759 mmHg 25%
    23:00 +28°C° 0 mm 3 m/s 759 mmHg 28%
    Arată mai mult